sat.trackr.live / text

‹ back to catalog

STARLINK-37591

NORAD 69033 · 2026-101J

PAYLOAD ACTIVE UNKNOWN

§ Identity

Operator
Country
US
Launch date
2026-05-06
Launch site
AFWTR
Launch vehicle
Mass (kg)
RCS (m²)

Purposes: comms

External: N2YO · Heavens-Above · Gunter

§ Orbital elements

Epoch: 2026-05-25T05:00:43.917696Z

Period
91.56 min
Inclination
97.2847°
Eccentricity
0.0003452
Mean motion
15.72729979 rev/d
Perigee alt
348.8 km
Apogee alt
353.4 km
Semi-major
6,729.2 km
B*
5.5978e-4
RAAN
359.9685°
Arg perigee
202.6254°
Mean anomaly
157.4858°
Rev number
302

§ Raw data

STARLINK-375911 69033U 26101J   26145.20884164  .00075720  00000+0  55978-3 0  99992 69033  97.2847 359.9685 0003452 202.6254 157.4858 15.72729979  3021

JSON: /api/v1/satellites/69033 · /tle

For live sub-satellite position, see the globe view (requires WebGL).

§ Visibility from observer

Set your observer location to see the next 7 days of passes ≥ 10°. The values pass through the URL so the page stays shareable.

No JS? Fill the form by hand. The geolocation button needs JavaScript.